Time,TemperatureF,DewpointF,PressureIn,WindDirection,WindDirectionDegrees,WindSpeedMPH,WindSpeedGustMPH,Humidity,HourlyPrecipIn,Conditions,Clouds,dailyrainin,SoftwareType,DateUTC
2013-10-10 00:03:00,39.0,38.5,30.15,NNW,336,0.0,0.0,98,0.00,CLR,SCT,0.00,WeatherDisplay:10.37,2013-10-10 04:03:00,
2013-10-10 00:18:00,40.0,39.5,30.15,WNW,284,0.0,0.0,98,0.00,CLR,SCT,0.00,WeatherDisplay:10.37,2013-10-10 04:18:00,
2013-10-10 00:33:00,40.0,39.5,30.15,WSW,241,0.0,0.0,98,0.00,CLR,SCT,0.00,WeatherDisplay:10.37,2013-10-10 04:33:00,
2013-10-10 00:48:00,40.0,39.5,30.15,WNW,285,0.0,0.0,98,0.00,CLR,SCT,0.00,WeatherDisplay:10.37,2013-10-10 04:48:00,
2013-10-10 01:03:00,40.0,39.5,30.15,WSW,246,0.0,0.0,98,0.00,CLR,SCT,0.00,WeatherDisplay:10.37,2013-10-10 05:03:00,
2013-10-10 01:18:00,40.0,39.5,30.15,NW,321,0.0,0.0,98,0.00,CLR,SCT,0.00,WeatherDisplay:10.37,2013-10-10 05:18:00,
2013-10-10 01:33:00,40.0,39.5,30.15,SW,234,0.0,0.0,98,0.00,CLR,SCT,0.00,WeatherDisplay:10.37,2013-10-10 05:33:00,
2013-10-10 01:48:00,40.0,39.5,30.15,West,268,0.0,0.0,98,0.00,CLR,SCT,0.00,WeatherDisplay:10.37,2013-10-10 05:48:00,
2013-10-10 02:03:00,39.0,38.5,30.15,West,268,0.0,0.0,98,0.00,CLR,SCT,0.00,WeatherDisplay:10.37,2013-10-10 06:03:00,
2013-10-10 02:18:00,39.0,38.5,30.15,West,261,0.0,0.0,98,0.00,CLR,SCT,0.00,WeatherDisplay:10.37,2013-10-10 06:18:00,
2013-10-10 02:33:00,39.0,38.5,30.15,West,273,0.0,0.0,98,0.00,CLR,SCT,0.00,WeatherDisplay:10.37,2013-10-10 06:33:00,
2013-10-10 02:48:00,39.0,38.5,30.15,West,270,0.0,0.0,98,0.00,CLR,SCT,0.00,WeatherDisplay:10.37,2013-10-10 06:48:00,
2013-10-10 03:03:00,40.0,39.5,30.15,SSE,156,0.0,0.0,98,0.00,CLR,SCT,0.00,WeatherDisplay:10.37,2013-10-10 07:03:00,
2013-10-10 03:18:00,41.0,40.5,30.15,NNW,333,0.0,0.0,98,0.00,CLR,SCT,0.00,WeatherDisplay:10.37,2013-10-10 07:18:00,
2013-10-10 03:33:00,42.0,41.5,30.15,WNW,288,0.0,0.0,98,0.00,CLR,SCT,0.00,WeatherDisplay:10.37,2013-10-10 07:33:00,
2013-10-10 03:48:00,43.0,42.5,30.15,WSW,252,0.0,0.0,98,0.00,CLR,SCT,0.00,WeatherDisplay:10.37,2013-10-10 07:48:00,
2013-10-10 04:03:00,44.0,43.5,30.15,WNW,291,0.0,0.0,98,0.00,CLR,SCT,0.00,WeatherDisplay:10.37,2013-10-10 08:03:00,
2013-10-10 04:18:00,46.0,45.5,30.15,SSW,193,0.0,0.0,98,0.00,CLR,SCT,0.00,WeatherDisplay:10.37,2013-10-10 08:18:00,
2013-10-10 04:33:00,47.0,46.5,30.15,NNE,18,0.0,0.0,98,0.00,CLR,SCT,0.00,WeatherDisplay:10.37,2013-10-10 08:33:00,
2013-10-10 04:48:00,48.0,47.5,30.15,NW,320,0.0,4.0,98,0.00,CLR,SCT,0.00,WeatherDisplay:10.37,2013-10-10 08:48:00,
2013-10-10 05:03:00,49.0,48.5,30.15,North,358,0.0,4.0,98,0.00,CLR,SCT,0.00,WeatherDisplay:10.37,2013-10-10 09:03:00,
2013-10-10 05:18:00,52.0,51.5,30.15,West,277,2.0,2.0,98,0.00,CLR,SCT,0.00,WeatherDisplay:10.37,2013-10-10 09:18:00,
2013-10-10 05:33:00,53.0,52.5,30.15,WNW,291,0.0,2.0,98,0.00,CLR,SCT,0.00,WeatherDisplay:10.37,2013-10-10 09:33:00,
2013-10-10 05:48:00,54.0,53.4,30.15,WNW,291,0.0,0.0,98,0.00,CLR,SCT,0.00,WeatherDisplay:10.37,2013-10-10 09:48:00,
2013-10-10 06:03:00,54.0,53.4,30.12,ENE,66,0.0,0.0,98,0.00,CLR,SCT,0.00,WeatherDisplay:10.37,2013-10-10 10:03:00,
2013-10-10 06:18:00,55.0,54.4,30.12,NNE,16,2.0,2.0,98,0.00,CLR,SCT,0.00,WeatherDisplay:10.37,2013-10-10 10:18:00,
2013-10-10 06:33:00,56.0,55.4,30.12,North,8,0.0,1.0,98,0.00,CLR,SCT,0.00,WeatherDisplay:10.37,2013-10-10 10:33:00,
2013-10-10 06:48:00,56.0,55.4,30.12,North,2,0.0,0.0,98,0.00,CLR,SCT,0.00,WeatherDisplay:10.37,2013-10-10 10:48:00,
2013-10-10 07:03:00,56.0,55.4,30.12,ENE,66,1.0,2.0,98,0.00,CLR,SCT,0.00,WeatherDisplay:10.37,2013-10-10 11:03:00,
2013-10-10 07:18:00,57.0,56.4,30.12,ENE,57,0.0,0.0,98,0.00,CLR,SCT,0.00,WeatherDisplay:10.37,2013-10-10 11:18:00,
2013-10-10 07:33:00,58.0,57.4,30.12,ENE,61,0.0,0.0,98,0.00,CLR,SCT,0.00,WeatherDisplay:10.37,2013-10-10 11:33:00,
2013-10-10 07:48:00,59.0,58.4,30.09,ENE,65,3.0,4.0,98,0.00,CLR,SCT,0.00,WeatherDisplay:10.37,2013-10-10 11:48:00,
2013-10-10 08:03:00,59.0,58.4,30.09,North,358,2.0,4.0,98,0.00,CLR,SCT,0.00,WeatherDisplay:10.37,2013-10-10 12:03:00,
2013-10-10 08:18:00,59.0,58.4,30.09,NE,36,2.0,2.0,98,0.00,CLR,SCT,0.00,WeatherDisplay:10.37,2013-10-10 12:18:00,
2013-10-10 08:33:00,59.0,58.4,30.09,NE,55,0.0,2.0,98,0.00,CLR,SCT,0.00,WeatherDisplay:10.37,2013-10-10 12:33:00,
2013-10-10 08:48:00,59.0,58.4,30.09,NNE,23,0.0,0.0,98,0.00,CLR,SCT,0.00,WeatherDisplay:10.37,2013-10-10 12:48:00,
2013-10-10 09:03:00,59.0,58.4,30.09,North,358,0.0,0.0,98,0.00,CLR,SCT,0.00,WeatherDisplay:10.37,2013-10-10 13:03:00,
2013-10-10 09:18:00,59.0,58.4,30.09,NNE,14,0.0,0.0,98,0.00,CLR,SCT,0.00,WeatherDisplay:10.37,2013-10-10 13:18:00,
2013-10-10 09:33:00,60.0,59.4,30.09,North,358,0.0,0.0,98,0.00,CLR,SCT,0.00,WeatherDisplay:10.37,2013-10-10 13:33:00,
2013-10-10 09:48:00,61.0,60.4,30.09,NNE,19,0.0,0.0,98,0.00,CLR,SCT,0.00,WeatherDisplay:10.37,2013-10-10 13:48:00,
2013-10-10 10:03:00,61.0,60.4,30.06,NW,314,0.0,0.0,98,0.00,CLR,SCT,0.00,WeatherDisplay:10.37,2013-10-10 14:03:00,
2013-10-10 10:18:00,60.0,59.4,30.06,North,11,0.0,0.0,98,0.00,CLR,SCT,0.00,WeatherDisplay:10.37,2013-10-10 14:18:00,
2013-10-10 10:33:00,59.0,58.4,30.06,West,268,1.0,4.0,98,0.00,CLR,SCT,0.00,WeatherDisplay:10.37,2013-10-10 14:33:00,
2013-10-10 10:48:00,59.0,58.4,30.06,NNW,330,1.0,4.0,98,0.00,CLR,SCT,0.00,WeatherDisplay:10.37,2013-10-10 14:48:00,
2013-10-10 11:03:00,59.0,58.4,30.06,North,358,2.0,4.0,98,0.00,CLR,SCT,0.00,WeatherDisplay:10.37,2013-10-10 15:03:00,
2013-10-10 16:33:00,60.3,45.9,30.24,NE,41,0.0,3.0,59,0.00,CLR,SCT,0.00,WeatherDisplay:10.37,2013-10-10 20:33:00,
2013-10-10 16:48:00,60.1,45.7,30.24,NNE,14,0.0,3.0,59,0.00,CLR,SCT,0.00,WeatherDisplay:10.37,2013-10-10 20:48:00,
2013-10-10 17:03:00,59.1,44.7,30.24,NNE,32,0.0,3.0,59,0.00,CLR,SCT,0.00,WeatherDisplay:10.37,2013-10-10 21:03:00,
2013-10-10 17:18:00,58.9,44.6,30.24,NE,38,0.0,0.0,59,0.00,CLR,SCT,0.00,WeatherDisplay:10.37,2013-10-10 21:18:00,
2013-10-10 17:33:00,57.9,43.7,30.23,NNE,23,0.0,0.0,59,0.00,CLR,SCT,0.00,WeatherDisplay:10.37,2013-10-10 21:33:00,
2013-10-10 17:48:00,57.2,43.0,30.24,ENE,74,0.0,0.0,59,0.00,CLR,SCT,0.00,WeatherDisplay:10.37,2013-10-10 21:48:00,
2013-10-10 18:03:00,56.5,45.7,30.23,NNE,22,0.0,0.0,67,0.00,CLR,SCT,0.00,WeatherDisplay:10.37,2013-10-10 22:03:00,
2013-10-10 18:18:00,55.7,45.6,30.23,NNE,14,1.0,3.0,69,0.00,CLR,SCT,0.00,WeatherDisplay:10.37,2013-10-10 22:18:00,
2013-10-10 18:33:00,55.0,45.0,30.22,North,357,0.0,2.0,69,0.00,CLR,SCT,0.00,WeatherDisplay:10.37,2013-10-10 22:33:00,
2013-10-10 18:48:00,54.9,44.9,30.22,North,9,1.0,2.0,69,0.00,CLR,SCT,0.00,WeatherDisplay:10.37,2013-10-10 22:48:00,
2013-10-10 19:03:00,54.5,46.7,30.22,North,8,0.0,0.0,75,0.00,CLR,SCT,0.00,WeatherDisplay:10.37,2013-10-10 23:03:00,
2013-10-10 19:18:00,54.1,47.0,30.22,West,262,0.0,2.0,77,0.00,CLR,SCT,0.00,WeatherDisplay:10.37,2013-10-10 23:18:00,
2013-10-10 19:32:00,54.0,47.0,30.22,ESE,109,0.0,0.0,77,0.00,CLR,SCT,0.00,WeatherDisplay:10.37,2013-10-10 23:32:00,
2013-10-10 19:48:00,53.6,46.5,30.23,SW,219,0.0,0.0,77,0.00,CLR,SCT,0.00,WeatherDisplay:10.37,2013-10-10 23:48:00,
2013-10-10 20:03:00,53.2,47.5,30.23,WSW,253,0.0,0.0,81,0.00,CLR,SCT,0.00,WeatherDisplay:10.37,2013-10-11 00:03:00,
2013-10-10 20:18:00,52.9,47.6,30.23,WSW,256,0.0,0.0,82,0.00,CLR,SCT,0.00,WeatherDisplay:10.37,2013-10-11 00:18:00,
2013-10-10 20:33:00,52.7,47.4,30.23,SW,217,0.0,0.0,82,0.00,CLR,SCT,0.00,WeatherDisplay:10.37,2013-10-11 00:33:00,
2013-10-10 20:48:00,52.3,47.0,30.23,SW,224,0.0,0.0,82,0.00,CLR,SCT,0.00,WeatherDisplay:10.37,2013-10-11 00:48:00,
2013-10-10 21:03:00,52.2,47.8,30.22,WSW,246,0.0,0.0,85,0.00,CLR,SCT,0.00,WeatherDisplay:10.37,2013-10-11 01:03:00,
2013-10-10 21:18:00,52.0,47.6,30.22,West,275,0.0,0.0,85,0.00,CLR,SCT,0.00,WeatherDisplay:10.37,2013-10-11 01:18:00,
2013-10-10 21:33:00,51.8,47.4,30.22,SSE,163,0.0,0.0,85,0.00,CLR,SCT,0.00,WeatherDisplay:10.37,2013-10-11 01:33:00,
2013-10-10 21:47:00,51.6,47.2,30.22,WSW,251,0.0,0.0,85,0.00,CLR,SCT,0.00,WeatherDisplay:10.37,2013-10-11 01:47:00,
2013-10-10 22:02:00,51.3,48.2,30.22,SW,215,0.0,0.0,89,0.00,CLR,SCT,0.00,WeatherDisplay:10.37,2013-10-11 02:02:00,
2013-10-10 22:17:00,50.5,47.4,30.21,South,183,0.0,0.0,89,0.00,CLR,SCT,0.00,WeatherDisplay:10.37,2013-10-11 02:17:00,
2013-10-10 22:33:00,50.0,46.9,30.21,West,268,0.0,0.0,89,0.00,CLR,SCT,0.00,WeatherDisplay:10.37,2013-10-11 02:33:00,
2013-10-10 22:48:00,49.3,46.2,30.21,West,275,0.0,0.0,89,0.00,CLR,SCT,0.00,WeatherDisplay:10.37,2013-10-11 02:48:00,
2013-10-10 23:03:00,48.7,45.6,30.21,WSW,239,0.0,0.0,89,0.00,CLR,SCT,0.00,WeatherDisplay:10.37,2013-10-11 03:03:00,
2013-10-10 23:18:00,48.6,45.5,30.21,SSW,208,0.0,0.0,89,0.00,CLR,SCT,0.00,WeatherDisplay:10.37,2013-10-11 03:18:00,
2013-10-10 23:32:00,48.1,45.0,30.20,WSW,242,0.0,0.0,89,0.00,CLR,SCT,0.00,WeatherDisplay:10.37,2013-10-11 03:32:00,
2013-10-10 23:48:00,47.5,44.4,30.20,WSW,254,0.0,0.0,89,0.00,CLR,SCT,0.00,WeatherDisplay:10.37,2013-10-11 03:48:00,